DateTimeUTC,F1_A11,F1_S11,BsB_S11,BsG_S11,BsR_S11,BbsB_S11,BbsG_S11,BbsR_S11,BaB_A11,BaG_A11,BaR_A11,T_S11,U_S11,P_S11,T1_A11
2020-06-07T00:00:00Z,00000380,20000600,,,,,,,,,,24.8,05.2,0665.8,31.1
2020-06-07T00:01:00Z,00000380,20000600,,,,,,,,,,24.9,05.2,0665.8,31.1
2020-06-07T00:02:00Z,00000380,20000600,,,,,,,,,,24.9,05.0,0665.8,31.1
2020-06-07T00:03:00Z,00000380,60000600,,,,,,,,,,24.9,05.0,0665.8,31.2
2020-06-07T00:04:00Z,00000380,40000600,0000.64,-000.28,0000.23,-000.98,0000.36,0000.33,0000.08,0000.12,0000.19,24.7,05.1,0666.7,31.1
2020-06-07T00:05:00Z,00000380,00000600,0001.57,0000.03,0000.53,0000.04,0000.83,0000.12,-000.24,-000.09,-000.10,24.7,05.2,0666.8,31.1
2020-06-07T00:06:00Z,00000380,00000600,0002.35,0000.34,0000.87,0000.54,0000.46,0000.44,0000.13,0000.01,0000.05,24.7,05.2,0666.8,31.1
2020-06-07T00:07:00Z,00000380,00000600,0000.44,0000.36,0000.28,-000.23,0000.22,0000.05,0000.09,-000.02,0000.05,24.7,05.2,0666.8,31.1
2020-06-07T00:08:00Z,00000380,00000600,0000.42,-000.06,0000.24,-001.28,0000.57,-000.79,0000.08,0000.06,-000.00,24.6,05.2,0666.8,31.1
2020-06-07T00:09:00Z,00000380,00000600,-000.06,0000.20,0000.18,-000.84,0000.29,0000.19,-000.03,0000.08,0000.15,24.6,05.2,0666.8,31.1
2020-06-07T00:10:00Z,00000380,00000600,0000.53,0000.10,0000.53,-000.72,0000.42,-000.22,-000.10,0000.10,-000.02,24.6,05.2,0666.8,31.1
2020-06-07T00:11:00Z,00000380,00000600,0000.27,0000.65,0000.26,0000.14,0000.32,0000.04,-000.12,-000.02,-000.22,24.6,05.2,0666.8,31.1
2020-06-07T00:12:00Z,00000380,00000600,0002.06,0000.30,0001.09,-000.01,0000.54,0000.01,0000.22,-000.13,0000.29,24.6,05.2,0666.8,31.1
2020-06-07T00:13:00Z,00000380,00000600,0000.76,-000.36,-000.06,-000.55,0000.25,-000.07,0000.04,0000.13,-000.20,24.6,05.2,0666.8,31.1
2020-06-07T00:14:00Z,00000380,00000600,-000.71,0000.64,-000.13,-000.47,0000.18,-000.29,0000.00,0000.03,0000.08,24.6,05.3,0666.8,31.1
2020-06-07T00:15:00Z,00000380,00000600,0000.62,0000.41,0000.08,-000.17,0000.49,0000.23,0000.03,-000.02,-000.04,24.6,05.2,0666.8,31.1
2020-06-07T00:16:00Z,00000380,00000600,0001.93,0000.33,0000.61,-000.32,0000.40,0000.22,0000.12,0000.06,0000.10,24.6,05.2,0666.8,31.1
2020-06-07T00:17:00Z,00000380,00000600,0000.21,0000.12,0000.37,0000.15,0000.66,0000.04,-000.20,0000.04,-000.04,24.6,05.2,0666.8,31.1
2020-06-07T00:18:00Z,00000380,00000600,0001.30,0000.34,0000.36,0000.29,0000.68,0000.23,-000.09,-000.18,0000.01,24.6,05.2,0666.8,31.1
2020-06-07T00:19:00Z,00000380,00000600,0000.35,0000.27,0000.53,-000.07,0000.47,0000.25,0000.25,0000.12,0000.13,24.6,05.2,0666.8,31.1
2020-06-07T00:20:00Z,00000380,00000600,0001.12,-000.15,0000.11,-000.10,-000.08,-000.11,0000.00,-000.01,0000.07,24.6,05.3,0666.8,31.1
2020-06-07T00:21:00Z,00000380,00000600,0000.35,0000.41,0000.52,0000.02,0000.14,0000.05,0000.02,0000.17,-000.15,24.6,05.2,0666.7,31.1
2020-06-07T00:22:00Z,00000380,00000600,0001.07,0000.87,0000.22,0000.25,0000.40,0000.34,-000.12,-000.07,0000.05,24.6,05.2,0666.7,31.1
2020-06-07T00:23:00Z,00000380,00000600,0001.29,0000.06,0000.68,-000.27,0000.19,0000.29,0000.05,-000.11,-000.09,24.6,05.2,0666.7,31.1
2020-06-07T00:24:00Z,00000380,00000600,0000.51,0000.02,0000.37,-000.05,0000.41,-000.31,0000.06,0000.17,0000.10,24.6,05.2,0666.7,31.1
2020-06-07T00:25:00Z,00000380,00000600,0000.90,0000.62,-000.14,-000.79,0000.23,-000.05,0000.03,-000.12,0000.05,24.6,05.2,0666.7,31.1
2020-06-07T00:26:00Z,00000380,00000600,0002.22,0000.29,0000.85,-000.04,0000.58,0000.19,-000.08,0000.07,0000.03,24.6,05.2,0666.7,31.1
2020-06-07T00:27:00Z,00000380,00000600,0000.36,0000.26,0000.56,-000.62,0000.34,-000.07,-000.01,0000.04,-000.12,24.6,05.2,0666.7,31.1
2020-06-07T00:28:00Z,00000380,00000600,0000.09,0000.18,0000.45,-000.40,0000.62,-000.18,-000.12,-000.16,0000.02,24.6,05.2,0666.7,31.1
2020-06-07T00:29:00Z,00000380,00000600,0001.21,0000.26,0000.33,0000.24,0000.12,-000.20,0000.17,0000.07,-000.01,24.6,05.2,0666.7,31.1
2020-06-07T00:30:00Z,00000380,00000600,0001.28,0000.29,-000.22,-000.36,0000.64,0000.11,-000.08,0000.09,0000.07,24.6,05.2,0666.7,31.1
2020-06-07T00:31:00Z,00000380,00000600,0001.02,0000.21,-000.10,0000.43,0000.30,0000.30,0000.11,-000.10,-000.11,24.6,05.2,0666.7,31.1
2020-06-07T00:32:00Z,00000380,00000600,0001.44,0000.30,0000.31,-000.48,0000.48,-000.02,0000.09,0000.18,0000.11,24.6,05.1,0666.7,31.1
2020-06-07T00:33:00Z,00000380,00000600,0002.13,0000.57,-000.04,-000.45,0000.63,-000.19,-000.08,-000.08,0000.04,24.6,05.2,0666.7,31.1
2020-06-07T00:34:00Z,00000380,00000600,0000.23,0000.03,0000.76,-000.38,0000.33,0000.32,0000.05,0000.09,0000.08,24.6,05.2,0666.7,31.1
2020-06-07T00:35:00Z,00000380,00000600,0000.61,0000.10,0000.66,0000.05,0000.61,0000.47,-000.08,0000.03,-000.25,24.6,05.2,0666.7,31.1
2020-06-07T00:36:00Z,00000380,00000600,0000.64,-000.03,0000.05,0000.41,0000.39,0000.26,0000.03,0000.04,0000.23,24.6,05.1,0666.7,31.1
2020-06-07T00:37:00Z,00000380,00000600,0000.41,0000.44,-000.11,-001.32,0000.02,0000.34,-000.04,-000.10,0000.09,24.6,05.1,0666.7,31.1
2020-06-07T00:38:00Z,00000380,00000600,0001.81,0000.65,0000.35,-000.17,0000.30,0000.26,0000.20,0000.12,-000.01,24.6,05.2,0666.7,31.1
2020-06-07T00:39:00Z,00000380,00000600,0000.32,0000.16,-000.04,-000.60,0000.37,-000.10,-000.09,0000.07,-000.00,24.6,05.2,0666.7,31.1
2020-06-07T00:40:00Z,00000380,00000600,0000.66,-000.11,0000.03,-000.33,0000.03,-000.32,-000.00,-000.05,0000.07,24.6,05.2,0666.7,31.1
2020-06-07T00:41:00Z,00000380,00000600,-000.13,0000.55,0000.15,0000.16,0000.29,0000.28,0000.03,-000.12,-000.05,24.5,05.2,0666.7,31.1
2020-06-07T00:42:00Z,00000380,00000600,0001.06,0000.50,0000.28,-000.07,0000.38,0000.35,0000.07,0000.08,0000.05,24.6,05.2,0666.7,31.1
2020-06-07T00:43:00Z,00000380,00000600,0001.66,-000.06,0000.44,0000.34,0000.36,0000.04,0000.00,-000.02,-000.10,24.6,05.2,0666.7,31.1
2020-06-07T00:44:00Z,00000380,00000600,0000.78,-000.25,0000.93,0000.78,0000.98,0000.52,0000.01,0000.09,0000.04,24.5,05.2,0666.7,31.1
2020-06-07T00:45:00Z,00000380,00000600,0000.74,0000.20,0000.88,-000.33,0000.60,0000.21,-000.06,-000.03,-000.07,24.6,05.2,0666.7,31.1
2020-06-07T00:46:00Z,00000380,00000600,0000.04,0000.05,0000.03,-000.16,0000.62,0000.06,-000.15,0000.00,0000.02,24.6,05.1,0666.7,31.1
2020-06-07T00:47:00Z,00000380,00000600,0001.07,0000.17,0000.61,0000.04,0000.65,0000.44,0000.15,0000.07,-000.00,24.6,05.2,0666.7,31.1
2020-06-07T00:48:00Z,00000380,00000600,0001.51,0000.80,0000.10,-000.34,0000.56,0000.22,-000.10,0000.00,0000.06,24.6,05.1,0666.7,31.1
2020-06-07T00:49:00Z,00000380,00000600,0000.95,0000.43,0000.12,-000.96,0000.36,0000.08,0000.23,0000.11,0000.04,24.6,05.1,0666.7,31.1
2020-06-07T00:50:00Z,00000380,00000600,0001.08,0000.12,0000.31,0000.00,0000.23,0000.53,-000.15,-000.20,0000.08,24.6,05.0,0666.7,31.1
2020-06-07T00:51:00Z,00000380,00000600,0000.10,0000.25,0000.35,0000.14,0000.40,0000.05,-000.10,0000.10,-000.14,24.5,05.1,0666.7,31.1
2020-06-07T00:52:00Z,00000380,00000600,0000.86,0000.10,0000.00,-000.30,0000.96,0000.12,0000.13,0000.01,0000.15,24.5,05.1,0666.7,31.1
2020-06-07T00:53:00Z,00000380,00000600,0000.67,0000.45,-000.23,0000.67,-000.20,0000.07,0000.15,0000.01,-000.08,24.6,05.1,0666.7,31.1
2020-06-07T00:54:00Z,00000380,00000600,0001.06,0000.28,0000.49,0000.42,0000.35,-000.12,-000.27,-000.06,-000.07,24.5,05.1,0666.7,31.1
2020-06-07T00:55:00Z,00000380,00000600,0000.13,0000.49,0000.06,-000.38,0000.46,0000.20,0000.11,0000.13,0000.14,24.6,05.0,0666.7,31.1
2020-06-07T00:56:00Z,00000380,00000600,0000.83,0000.24,0000.38,-000.29,-000.06,0000.07,-000.10,-000.05,-000.08,24.6,05.1,0666.7,31.1
2020-06-07T00:57:00Z,00000380,40000600,,,,,,,,,,24.5,05.4,0666.7,31.1
2020-06-07T00:58:00Z,00000380,60000600,,,,,,,,,,24.7,05.0,0665.7,31.1
2020-06-07T00:59:00Z,00000380,20000600,,,,,,,,,,24.8,04.9,0665.7,31.1
2020-06-07T01:00:00Z,00000380,20000600,,,,,,,,,,24.8,04.8,0665.7,31.1
2020-06-07T01:01:00Z,00000380,20000600,,,,,,,,,,24.8,04.8,0665.7,31.1
2020-06-07T01:02:00Z,00000380,20000600,,,,,,,,,,24.8,04.8,0665.6,31.1
2020-06-07T01:03:00Z,00000380,60000600,,,,,,,,,,24.8,04.8,0665.6,31.1
2020-06-07T01:04:00Z,00000380,40000600,0000.75,0000.28,0000.19,0000.77,0000.22,0000.07,0000.04,0000.10,0000.07,24.6,04.9,0666.5,31.1
2020-06-07T01:05:00Z,00000380,00000600,0000.35,0000.54,0000.12,0000.94,0000.13,0000.20,0000.04,-000.16,-000.02,24.6,04.9,0666.6,31.1
2020-06-07T01:06:00Z,00000380,00000600,0001.30,0000.52,-000.21,-000.18,0000.58,-000.29,-000.03,-000.03,0000.14,24.6,04.9,0666.6,31.1
2020-06-07T01:07:00Z,00000380,00000600,0000.98,0000.10,0000.30,0001.08,0000.39,0000.06,0000.00,0000.07,-000.24,24.6,05.0,0666.6,31.1
2020-06-07T01:08:00Z,00000380,00000600,0000.80,0000.10,-000.06,0000.28,0000.32,-000.05,-000.03,0000.05,0000.05,24.6,04.9,0666.6,31.1
2020-06-07T01:09:00Z,00000380,00000600,0001.01,-000.19,-000.07,0000.13,-000.27,-000.11,0000.00,0000.03,0000.14,24.5,05.0,0666.6,31.1
2020-06-07T01:10:00Z,00000380,00000600,0000.32,0000.04,-000.14,0000.37,0000.23,-000.19,-000.03,-000.10,-000.18,24.5,05.0,0666.6,31.1
2020-06-07T01:11:00Z,00000380,00000600,0000.45,0000.05,-000.02,0000.35,0000.02,-000.20,0000.01,-000.10,0000.08,24.5,04.9,0666.6,31.1
2020-06-07T01:12:00Z,00000380,00000600,0000.92,0000.36,0000.46,-000.21,-000.05,0000.13,-000.04,0000.12,0000.03,24.5,04.9,0666.6,31.1
2020-06-07T01:13:00Z,00000380,00000600,0000.42,0000.44,0000.32,0001.08,0000.37,-000.19,0000.07,0000.02,0000.02,24.5,04.9,0666.6,31.1
2020-06-07T01:14:00Z,00000380,00000600,0000.64,0000.39,-000.41,0000.01,0000.16,-000.00,0000.16,0000.23,-000.07,24.5,04.9,0666.6,31.1
2020-06-07T01:15:00Z,00000380,00000600,0000.57,0000.43,0000.17,-000.42,0000.22,-000.33,-000.20,-000.13,0000.06,24.5,04.9,0666.6,31.1
2020-06-07T01:16:00Z,00000380,00000600,0000.70,0000.33,-000.05,0000.21,0000.36,-000.39,-000.10,-000.08,0000.02,24.5,05.0,0666.6,31.1
2020-06-07T01:17:00Z,00000380,00000600,0000.73,0000.38,-000.01,0000.02,0000.11,-000.23,0000.09,-000.02,-000.03,24.5,04.9,0666.6,31.1
2020-06-07T01:18:00Z,00000380,00000600,0000.29,-000.01,0000.06,0000.04,0000.07,-000.06,0000.07,0000.06,0000.11,24.5,04.9,0666.6,31.1
2020-06-07T01:19:00Z,00000380,00000600,0000.52,0000.37,0000.07,0000.55,0000.16,-000.17,-000.09,-000.03,-000.20,24.5,04.8,0666.6,31.1
2020-06-07T01:20:00Z,00000380,00000600,0000.19,0000.13,0000.27,0000.42,0000.64,-000.24,0000.06,0000.01,0000.08,24.5,04.9,0666.6,31.1
2020-06-07T01:21:00Z,00000380,00000600,0000.19,0000.10,0000.24,0000.53,0000.11,0000.04,-000.04,-000.09,0000.10,24.5,04.8,0666.6,31.1
2020-06-07T01:22:00Z,00000380,00000600,-001.05,0000.53,-000.03,0000.96,0000.05,-000.35,-000.05,0000.10,-000.10,24.5,04.9,0666.6,31.1
2020-06-07T01:23:00Z,00000380,00000600,0001.41,0000.39,-000.12,-000.98,0000.26,-000.42,0000.00,-000.01,0000.08,24.5,04.9,0666.6,31.1
2020-06-07T01:24:00Z,00000380,00000600,0000.00,0000.53,-000.51,0000.29,0000.44,-000.18,0000.09,-000.03,-000.15,24.5,04.8,0666.6,31.1
2020-06-07T01:25:00Z,00000380,00000600,0000.31,0000.13,0000.39,0000.23,0000.43,0000.23,0000.04,0000.12,0000.07,24.5,04.8,0666.6,31.1
2020-06-07T01:26:00Z,00000380,00000600,0001.15,-000.10,0000.42,-000.74,0000.06,0000.62,-000.08,-000.06,-000.11,24.5,04.8,0666.6,31.1
2020-06-07T01:27:00Z,00000380,00000600,0001.19,0000.48,-000.19,0000.26,0000.54,0000.30,-000.02,0000.05,0000.07,24.5,04.8,0666.6,31.1
2020-06-07T01:28:00Z,00000380,00000600,0000.32,0000.50,0000.24,0000.14,-000.24,-000.10,0000.06,0000.04,0000.04,24.5,04.9,0666.6,31.1
2020-06-07T01:29:00Z,00000380,00000600,0000.45,0000.78,0000.41,0001.09,0000.54,0000.74,-000.02,-000.11,0000.07,24.5,04.8,0666.6,31.1
2020-06-07T01:30:00Z,00000380,00000600,0000.57,0000.39,0000.11,-000.46,0000.43,-000.21,-000.06,0000.03,0000.05,24.5,04.8,0666.6,31.1
2020-06-07T01:31:00Z,00000380,00000600,0001.14,0000.03,0000.50,-000.06,0000.25,-000.04,0000.01,-000.05,-000.03,24.5,04.7,0666.6,31.1
2020-06-07T01:32:00Z,00000380,00000600,0001.16,0000.17,-000.05,0000.56,-000.11,0000.25,-000.06,0000.09,0000.08,24.5,04.8,0666.6,31.1
2020-06-07T01:33:00Z,00000380,00000600,0000.59,0000.25,0000.32,-000.47,0000.19,0000.12,-000.07,-000.17,-000.14,24.5,04.8,0666.6,31.1
2020-06-07T01:34:00Z,00000380,00000600,0000.35,0000.84,-000.19,0000.15,-000.02,-000.20,0000.08,0000.22,0000.06,24.5,04.7,0666.6,31.1
2020-06-07T01:35:00Z,00000380,00000600,0000.61,0000.03,-000.06,0000.56,0000.24,-000.28,-000.00,-000.18,-000.06,24.5,04.7,0666.6,31.1
2020-06-07T01:36:00Z,00000380,00000600,0000.69,0000.37,0000.25,-000.34,-000.06,-000.13,-000.03,0000.04,-000.05,24.5,04.7,0666.6,31.1
2020-06-07T01:37:00Z,00000380,00000600,0001.86,0000.77,0000.23,0000.38,0000.16,0000.03,0000.03,0000.10,0000.08,24.5,04.7,0666.6,31.1
2020-06-07T01:38:00Z,00000380,00000600,0001.19,0000.66,0000.26,0000.07,0000.30,0000.02,-000.12,-000.12,0000.02,24.5,04.6,0666.6,31.1
2020-06-07T01:39:00Z,00000380,00000600,0000.29,0000.10,0000.03,-000.77,0000.18,-000.52,0000.14,-000.14,-000.10,24.5,04.6,0666.5,31.1
2020-06-07T01:40:00Z,00000380,00000600,-000.51,0000.35,0000.12,0000.17,0000.64,0000.05,-000.14,0000.01,0000.04,24.5,04.7,0666.5,31.1
2020-06-07T01:41:00Z,00000380,00000600,0000.35,-000.23,-000.36,-000.26,0000.08,-000.20,0000.13,0000.22,0000.21,24.5,04.7,0666.5,31.1
2020-06-07T01:42:00Z,00000380,00000600,-000.24,0000.48,-000.19,-000.22,0000.24,0000.13,-000.04,0000.01,-000.28,24.5,04.6,0666.5,31.1
2020-06-07T01:43:00Z,00000380,00000600,0001.06,-000.03,0000.42,0000.03,0000.51,-000.19,-000.10,-000.13,0000.14,24.5,04.7,0666.5,31.1
2020-06-07T01:44:00Z,00000380,00000600,0000.73,0000.41,0000.33,0000.13,0000.81,-000.11,0000.17,0000.05,0000.00,24.4,04.7,0666.5,31.1
2020-06-07T01:45:00Z,00000380,00000600,0000.29,0000.21,-000.08,0000.19,0000.35,-000.49,-000.10,0000.01,-000.02,24.5,04.7,0666.5,31.1
2020-06-07T01:46:00Z,00000380,00000600,0001.16,0000.43,0000.21,-000.02,0000.62,-000.02,0000.04,0000.03,-000.04,24.4,04.7,0666.5,31.1
2020-06-07T01:47:00Z,00000380,00000600,0000.81,0000.17,0000.68,0000.25,0000.15,0000.07,-000.07,-000.13,0000.09,24.5,04.7,0666.5,31.1
2020-06-07T01:48:00Z,00000380,00000600,-000.14,0000.63,0000.32,0000.06,0000.21,-000.14,-000.02,0000.19,0000.02,24.5,04.7,0666.5,31.1
2020-06-07T01:49:00Z,00000380,00000600,0000.91,0000.46,0000.07,0000.97,0000.13,0000.09,0000.11,-000.02,-000.07,24.4,04.6,0666.5,31.1
2020-06-07T01:50:00Z,00000380,00000600,0000.54,0000.24,0000.22,0000.30,0000.34,-000.39,0000.03,-000.05,0000.15,24.4,04.6,0666.4,31.1
2020-06-07T01:51:00Z,00000380,00000600,0001.37,0000.05,0000.38,0000.53,0000.16,-000.42,-000.08,-000.17,-000.14,24.4,04.7,0666.4,31.1
2020-06-07T01:52:00Z,00000380,00000600,0000.30,0000.28,-000.07,0000.94,0000.31,-000.35,0000.10,0000.15,0000.06,24.4,04.7,0666.4,31.1
2020-06-07T01:53:00Z,00000380,00000600,0000.64,-000.02,0000.13,0000.30,0000.53,0000.09,-000.03,0000.01,-000.00,24.4,04.7,0666.5,31.1
2020-06-07T01:54:00Z,00000380,00000600,0001.28,0000.19,-000.35,0000.74,0000.13,-000.10,-000.01,0000.14,0000.01,24.4,04.7,0666.5,31.1
2020-06-07T01:55:00Z,00000380,00000600,0000.78,0000.13,0000.00,0000.20,-000.04,-000.20,0000.07,-000.10,-000.07,24.4,04.7,0666.5,31.1
2020-06-07T01:56:00Z,00000380,00000600,0000.78,0000.58,0000.46,0000.97,0000.63,0000.00,-000.02,0000.04,0000.15,24.4,04.6,0666.5,31.1
2020-06-07T01:57:00Z,00000380,40000600,,,,,,,,,,24.4,04.4,0666.5,31.1
2020-06-07T01:58:00Z,00000380,60000600,,,,,,,,,,24.5,04.6,0665.5,31.1
2020-06-07T01:59:00Z,00000380,20000600,,,,,,,,,,24.5,04.6,0665.5,31.1
2020-06-07T02:00:00Z,00000380,20000600,,,,,,,,,,24.6,04.5,0665.5,31.1
2020-06-07T02:01:00Z,00000380,20000600,,,,,,,,,,24.7,04.4,0665.5,31.1
2020-06-07T02:02:00Z,00000380,20000600,,,,,,,,,,24.7,04.4,0665.5,31.1
2020-06-07T02:03:00Z,00000380,60000600,,,,,,,,,,24.7,04.4,0665.5,31.1
2020-06-07T02:04:00Z,00000380,40000600,-000.17,0000.53,0000.48,-000.22,0000.08,-000.01,0000.02,0000.04,0000.08,24.5,04.6,0666.4,31.1
2020-06-07T02:05:00Z,00000380,00000600,-000.66,0000.18,-000.21,-000.35,-000.18,-000.23,-000.03,0000.08,-000.06,24.5,04.6,0666.4,31.1
2020-06-07T02:06:00Z,00000380,00000600,-000.41,0000.53,0000.35,-000.09,0000.15,0000.03,0000.06,0000.06,-000.03,24.5,04.7,0666.4,31.1
2020-06-07T02:07:00Z,00000380,00000600,-001.21,0000.10,0000.67,-000.42,-000.09,0000.14,-000.03,-000.08,0000.15,24.5,04.7,0666.4,31.1
2020-06-07T02:08:00Z,00000380,00000600,-000.74,0000.68,0000.04,-000.19,0000.24,-000.22,-000.00,0000.13,-000.10,24.4,04.7,0666.4,31.1
2020-06-07T02:09:00Z,00000380,00000600,-000.45,0000.55,-000.35,0000.04,-000.36,0000.44,0000.15,-000.04,-000.00,24.4,04.7,0666.4,31.1
2020-06-07T02:10:00Z,00000380,00000600,-000.17,-000.13,0000.20,0000.14,-000.34,-000.17,0000.02,0000.04,-000.09,24.4,04.7,0666.4,31.1
2020-06-07T02:11:00Z,00000380,00000600,0000.53,0000.09,-000.13,0000.06,0000.15,-000.27,0000.00,-000.13,0000.13,24.4,04.7,0666.5,31.1
2020-06-07T02:12:00Z,00000380,00000600,-000.36,0000.48,-000.26,-000.17,0000.02,0000.36,-000.05,0000.03,-000.07,24.4,04.7,0666.4,31.1
2020-06-07T02:13:00Z,00000380,00000600,-000.24,0000.09,0000.08,0000.47,-000.32,0000.05,0000.02,0000.09,0000.07,24.4,04.7,0666.5,31.1
2020-06-07T02:14:00Z,00000380,00000600,-000.19,0000.49,0000.15,0000.18,-000.21,0000.16,0000.07,-000.09,0000.10,24.4,04.6,0666.4,31.1
2020-06-07T02:15:00Z,00000380,00000600,0000.07,0000.79,0000.13,0000.23,0000.57,0000.13,-000.05,0000.06,-000.07,24.4,04.6,0666.4,31.1
2020-06-07T02:16:00Z,00000380,00000600,0000.30,-000.17,0000.50,-001.11,-000.19,0000.19,0000.00,-000.04,0000.04,24.4,04.6,0666.4,31.1
2020-06-07T02:17:00Z,00000380,00000600,-000.10,0000.37,0000.04,-000.14,-000.08,0000.09,0000.09,0000.11,-000.09,24.4,04.6,0666.4,31.1
2020-06-07T02:18:00Z,00000380,00000600,-000.50,0000.30,-000.15,-000.11,0000.13,0000.34,0000.02,-000.06,0000.10,24.4,04.7,0666.4,31.1
2020-06-07T02:19:00Z,00000380,00000600,0000.12,0000.59,0000.33,-000.69,0000.18,-000.12,0000.00,0000.00,0000.12,24.4,04.7,0666.4,31.1
2020-06-07T02:20:00Z,00000380,00000600,-000.08,0000.40,0000.06,0000.29,0000.08,0000.16,0000.04,-000.01,-000.15,24.4,04.7,0666.4,31.1
2020-06-07T02:21:00Z,00000380,00000600,0000.15,0000.24,0000.27,-000.02,0000.06,-000.27,0000.01,0000.09,0000.02,24.4,04.6,0666.4,31.1
2020-06-07T02:22:00Z,00000380,00000600,0000.93,-000.38,0000.12,-000.10,0000.05,-000.09,0000.07,-000.06,0000.03,24.4,04.7,0666.4,31.1
2020-06-07T02:23:00Z,00000380,00000600,-000.01,0000.43,0000.08,0000.30,0000.12,-000.21,-000.06,0000.19,-000.07,24.4,04.6,0666.4,31.1
2020-06-07T02:24:00Z,00000380,00000600,-000.06,0000.20,0000.00,0000.24,-000.34,0000.24,-000.12,-000.12,0000.03,24.4,04.6,0666.4,31.1
2020-06-07T02:25:00Z,00000380,00000600,-000.31,0000.58,0000.17,0000.23,-000.12,0000.22,0000.15,-000.02,0000.12,24.4,04.7,0666.4,31.1
2020-06-07T02:26:00Z,00000380,00000600,0001.03,0000.37,-000.01,0000.55,0000.07,-000.17,0000.04,-000.16,-000.14,24.4,04.6,0666.4,31.1
2020-06-07T02:27:00Z,00000380,00000600,0000.01,0000.35,0000.23,0000.12,0000.26,0000.03,-000.08,0000.16,0000.06,24.4,04.6,0666.4,31.1
2020-06-07T02:28:00Z,00000380,00000600,0000.35,0000.12,0000.44,-000.32,0000.21,0000.15,0000.05,-000.04,0000.15,24.4,04.6,0666.4,31.1
2020-06-07T02:29:00Z,00000380,00000600,-000.07,0000.44,0000.49,0000.35,0000.13,-000.03,0000.04,0000.03,0000.08,24.4,04.6,0666.3,31.1
2020-06-07T02:30:00Z,00000380,00000600,-000.39,0000.66,0000.36,-000.86,0000.46,0000.12,-000.08,0000.10,-000.24,24.4,04.7,0666.3,31.1
2020-06-07T02:31:00Z,00000380,00000600,-000.74,0000.15,-000.05,-000.12,0000.01,0000.06,0000.04,-000.05,0000.13,24.4,04.6,0666.3,31.1
2020-06-07T02:32:00Z,00000380,00000600,0001.58,0000.40,-000.03,-001.09,0000.09,0000.29,0000.16,0000.12,-000.14,24.3,04.6,0666.3,31.1
2020-06-07T02:33:00Z,00000380,00000600,-000.21,0000.50,0000.10,-000.26,0000.47,-000.10,0000.02,0000.02,0000.24,24.3,04.6,0666.3,31.1
2020-06-07T02:34:00Z,00000380,00000600,-000.71,0000.88,0000.09,-000.36,0000.15,-000.01,-000.13,-000.09,-000.06,24.3,04.6,0666.3,31.1
2020-06-07T02:35:00Z,00000380,00000600,0000.01,0000.22,-000.04,-000.08,0000.01,-000.16,0000.08,-000.05,-000.10,24.3,04.6,0666.3,31.1
2020-06-07T02:36:00Z,00000380,00000600,0001.56,-000.21,-000.09,-001.13,-000.08,0000.00,0000.15,0000.29,0000.22,24.3,04.6,0666.3,31.1
2020-06-07T02:37:00Z,00000380,00000600,0000.06,0000.82,0000.76,0000.13,0000.13,0000.23,-000.13,-000.24,-000.21,24.3,04.6,0666.3,31.1
2020-06-07T02:38:00Z,00000380,00000600,0001.20,0000.41,0000.41,-000.00,-000.00,-000.14,0000.01,0000.18,0000.10,24.3,04.6,0666.3,31.1
2020-06-07T02:39:00Z,00000380,00000600,0000.02,0000.89,-000.02,0000.04,0000.17,-000.42,-000.08,-000.11,0000.08,24.3,04.6,0666.3,31.1
2020-06-07T02:40:00Z,00000380,00000600,-000.08,0000.50,0000.29,-000.30,0000.31,0000.50,0000.07,-000.00,-000.10,24.3,04.6,0666.3,31.1
2020-06-07T02:41:00Z,00000380,00000600,-000.39,0000.55,-000.20,-000.21,0000.09,-000.50,-000.08,-000.16,-000.02,24.3,04.6,0666.3,31.1
2020-06-07T02:42:00Z,00000380,00000600,-000.45,0000.21,-000.08,-000.05,0000.06,-000.63,0000.20,0000.19,0000.08,24.3,04.6,0666.3,31.1
2020-06-07T02:43:00Z,00000380,00000600,-000.83,0000.22,0000.03,0000.05,0000.21,0000.06,-000.15,-000.03,0000.05,24.3,04.6,0666.3,31.1
2020-06-07T02:44:00Z,00000380,00000600,-000.68,0000.30,0000.70,-000.18,0000.32,0000.16,0000.16,0000.01,-000.15,24.3,04.6,0666.3,31.1
2020-06-07T02:45:00Z,00000380,00000600,-000.23,0000.42,0000.12,0000.52,0000.40,0000.16,-000.12,-000.07,-000.00,24.3,04.5,0666.3,31.1
2020-06-07T02:46:00Z,00000380,00000600,0002.29,0001.15,-000.12,0000.77,0000.09,-000.04,0000.19,-000.15,-000.01,24.3,04.5,0666.3,31.1
2020-06-07T02:47:00Z,00000380,00000600,-000.65,0000.52,0000.63,0000.56,0000.23,-000.32,-000.07,0000.31,0000.09,24.3,04.6,0666.3,31.1
2020-06-07T02:48:00Z,00000380,00000600,-000.65,0000.58,0000.55,-000.74,-000.18,0000.07,-000.00,-000.06,-000.05,24.3,04.6,0666.3,31.1
2020-06-07T02:49:00Z,00000380,00000600,-000.66,0001.01,0000.35,0000.03,0000.37,0000.38,-000.01,-000.00,0000.07,24.3,04.5,0666.3,31.1
2020-06-07T02:50:00Z,00000380,00000600,0000.11,0000.94,0000.71,0000.47,0000.23,-000.31,0000.15,0000.03,0000.11,24.3,04.6,0666.3,31.1
2020-06-07T02:51:00Z,00000380,00000600,0000.26,0000.04,0000.11,-000.56,0000.19,0000.09,0000.02,0000.13,-000.04,24.3,04.6,0666.3,31.1
2020-06-07T02:52:00Z,00000380,00000600,0000.56,0000.62,0000.34,-000.13,0000.02,0000.29,-000.01,0000.01,0000.12,24.3,04.6,0666.3,31.1
2020-06-07T02:53:00Z,00000380,00000600,-000.07,0000.80,0000.30,-000.35,0000.14,0000.01,0000.26,0000.04,-000.01,24.3,04.6,0666.3,31.1
2020-06-07T02:54:00Z,00000380,00000600,0000.06,0001.45,0000.67,0000.14,-000.31,-000.17,-000.27,-000.02,-000.06,24.3,04.6,0666.3,31.1
2020-06-07T02:55:00Z,00000380,00000600,0001.31,0000.58,0000.19,-000.32,0000.29,0000.13,0000.12,0000.01,0000.10,24.3,04.6,0666.2,31.1
2020-06-07T02:56:00Z,00000380,00000600,-000.15,0000.16,0000.24,0000.38,-000.15,0000.24,0000.12,0000.05,-000.13,24.3,04.6,0666.2,31.1
2020-06-07T02:57:00Z,00000380,40000600,,,,,,,,,,24.3,04.8,0666.2,31.1
2020-06-07T02:58:00Z,00000380,60000600,,,,,,,,,,24.4,04.4,0665.3,31.1
2020-06-07T02:59:00Z,00000380,20000600,,,,,,,,,,24.5,04.4,0665.2,31.1
2020-06-07T03:00:00Z,00000380,20000600,,,,,,,,,,24.5,04.4,0665.2,31.1
2020-06-07T03:01:00Z,00000380,20000600,,,,,,,,,,24.5,04.4,0665.2,31.1
2020-06-07T03:02:00Z,00000380,20000600,,,,,,,,,,24.5,04.4,0665.2,31.1
2020-06-07T03:03:00Z,00000380,60000600,,,,,,,,,,24.5,04.4,0665.2,31.1
2020-06-07T03:04:00Z,00000380,40000600,0000.77,0000.11,0000.56,0000.90,-000.04,0000.23,0000.02,0000.17,0000.00,24.4,04.5,0666.1,31.1
2020-06-07T03:05:00Z,00000380,00000600,0000.90,0000.83,-000.24,-000.87,0000.02,-000.21,-000.08,-000.05,-000.17,24.3,04.5,0666.2,31.1
2020-06-07T03:06:00Z,00000380,00000600,0000.42,0000.50,0000.39,0001.19,0000.63,-000.32,0000.25,0000.01,0000.15,24.3,04.5,0666.2,31.1
2020-06-07T03:07:00Z,00000380,00000600,0000.87,0000.35,0000.59,0000.45,0000.05,-000.05,-000.19,0000.01,-000.05,24.3,04.5,0666.2,31.1
2020-06-07T03:08:00Z,00000380,00000600,0000.70,0000.81,0000.49,0000.62,0000.30,-000.45,0000.11,0000.09,0000.04,24.3,04.5,0666.2,31.1
2020-06-07T03:09:00Z,00000380,00000600,0001.17,0000.32,0000.50,-000.34,-000.00,0000.19,-000.02,-000.11,0000.02,24.3,04.6,0666.2,31.1
2020-06-07T03:10:00Z,00000380,00000600,-000.07,0000.30,0000.46,0001.29,0000.45,-000.05,0000.02,0000.12,-000.01,24.3,04.5,0666.2,31.1